owner,sensor,date,latitude,longitude,air_pressure(mBar),qcFlag 
COMPS,ioos:station:USF.COMPS:TAR:1,2011-02-01T00:00:00Z,28.1560,-82.7580,1017.9,1111122 
COMPS,ioos:station:USF.COMPS:TAR:1,2011-02-01T01:00:00Z,28.1560,-82.7580,1018.1,1111122 
COMPS,ioos:station:USF.COMPS:TAR:1,2011-02-01T02:00:00Z,28.1560,-82.7580,1018.7,1111122 
COMPS,ioos:station:USF.COMPS:TAR:1,2011-02-01T02:06:00Z,28.1560,-82.7580,1018.72,1111122 
COMPS,ioos:station:USF.COMPS:TAR:1,2011-02-01T02:12:00Z,28.1560,-82.7580,1018.82,1111122 
COMPS,ioos:station:USF.COMPS:TAR:1,2011-02-01T02:18:00Z,28.1560,-82.7580,1018.85,1111122 
COMPS,ioos:station:USF.COMPS:TAR:1,2011-02-01T02:24:00Z,28.1560,-82.7580,1018.85,1111122 
COMPS,ioos:station:USF.COMPS:TAR:1,2011-02-01T02:30:00Z,28.1560,-82.7580,1018.84,1111122 
COMPS,ioos:station:USF.COMPS:TAR:1,2011-02-01T02:36:00Z,28.1560,-82.7580,1018.92,1111122 
COMPS,ioos:station:USF.COMPS:TAR:1,2011-02-01T02:42:00Z,28.1560,-82.7580,1019.01,1111122 
COMPS,ioos:station:USF.COMPS:TAR:1,2011-02-01T02:48:00Z,28.1560,-82.7580,1019.1,1111122 
COMPS,ioos:station:USF.COMPS:TAR:1,2011-02-01T02:54:00Z,28.1560,-82.7580,1019.05,1111122 
COMPS,ioos:station:USF.COMPS:TAR:1,2011-02-01T03:00:00Z,28.1560,-82.7580,1019.1,1111122 
COMPS,ioos:station:USF.COMPS:TAR:1,2011-02-01T04:00:00Z,28.1560,-82.7580,1018.9,1111122 
COMPS,ioos:station:USF.COMPS:TAR:1,2011-02-01T05:00:00Z,28.1560,-82.7580,1018.7,1111122 
COMPS,ioos:station:USF.COMPS:TAR:1,2011-02-01T06:00:00Z,28.1560,-82.7580,1018.0,1111122 
COMPS,ioos:station:USF.COMPS:TAR:1,2011-02-01T06:06:00Z,28.1560,-82.7580,1017.81,1111122 
COMPS,ioos:station:USF.COMPS:TAR:1,2011-02-01T06:12:00Z,28.1560,-82.7580,1017.81,1111122 
COMPS,ioos:station:USF.COMPS:TAR:1,2011-02-01T06:18:00Z,28.1560,-82.7580,1017.7,1111122 
COMPS,ioos:station:USF.COMPS:TAR:1,2011-02-01T06:24:00Z,28.1560,-82.7580,1017.61,1111122 
COMPS,ioos:station:USF.COMPS:TAR:1,2011-02-01T06:30:00Z,28.1560,-82.7580,1017.6,1111122 
COMPS,ioos:station:USF.COMPS:TAR:1,2011-02-01T06:36:00Z,28.1560,-82.7580,1017.56,1111122 
COMPS,ioos:station:USF.COMPS:TAR:1,2011-02-01T06:42:00Z,28.1560,-82.7580,1017.56,1111122 
COMPS,ioos:station:USF.COMPS:TAR:1,2011-02-01T06:48:00Z,28.1560,-82.7580,1017.37,1111122 
COMPS,ioos:station:USF.COMPS:TAR:1,2011-02-01T06:54:00Z,28.1560,-82.7580,1017.36,1111122 
COMPS,ioos:station:USF.COMPS:TAR:1,2011-02-01T07:00:00Z,28.1560,-82.7580,1017.4,1111122 
COMPS,ioos:station:USF.COMPS:TAR:1,2011-02-01T08:00:00Z,28.1560,-82.7580,1016.4,1111122 
COMPS,ioos:station:USF.COMPS:TAR:1,2011-02-01T08:06:00Z,28.1560,-82.7580,1016.45,1111122 
COMPS,ioos:station:USF.COMPS:TAR:1,2011-02-01T08:12:00Z,28.1560,-82.7580,1016.41,1111122 
COMPS,ioos:station:USF.COMPS:TAR:1,2011-02-01T08:18:00Z,28.1560,-82.7580,1016.41,1111122 
COMPS,ioos:station:USF.COMPS:TAR:1,2011-02-01T08:24:00Z,28.1560,-82.7580,1016.52,1111122 
COMPS,ioos:station:USF.COMPS:TAR:1,2011-02-01T08:30:00Z,28.1560,-82.7580,1016.52,1111122 
COMPS,ioos:station:USF.COMPS:TAR:1,2011-02-01T08:36:00Z,28.1560,-82.7580,1016.57,1111122 
COMPS,ioos:station:USF.COMPS:TAR:1,2011-02-01T08:42:00Z,28.1560,-82.7580,1016.66,1111122 
COMPS,ioos:station:USF.COMPS:TAR:1,2011-02-01T08:48:00Z,28.1560,-82.7580,1016.7,1111122 
COMPS,ioos:station:USF.COMPS:TAR:1,2011-02-01T08:54:00Z,28.1560,-82.7580,1016.74,1111122 
COMPS,ioos:station:USF.COMPS:TAR:1,2011-02-01T09:00:00Z,28.1560,-82.7580,1016.7,1111122 
COMPS,ioos:station:USF.COMPS:TAR:1,2011-02-01T10:00:00Z,28.1560,-82.7580,1016.7,1111122 
COMPS,ioos:station:USF.COMPS:TAR:1,2011-02-01T11:00:00Z,28.1560,-82.7580,1017.0,1111122 
COMPS,ioos:station:USF.COMPS:TAR:1,2011-02-01T12:00:00Z,28.1560,-82.7580,1017.3,1111122 
COMPS,ioos:station:USF.COMPS:TAR:1,2011-02-01T12:06:00Z,28.1560,-82.7580,1017.53,1111122 
COMPS,ioos:station:USF.COMPS:TAR:1,2011-02-01T12:12:00Z,28.1560,-82.7580,1017.58,1111122 
COMPS,ioos:station:USF.COMPS:TAR:1,2011-02-01T12:18:00Z,28.1560,-82.7580,1017.58,1111122 
COMPS,ioos:station:USF.COMPS:TAR:1,2011-02-01T12:24:00Z,28.1560,-82.7580,1017.41,1111122 
COMPS,ioos:station:USF.COMPS:TAR:1,2011-02-01T12:30:00Z,28.1560,-82.7580,1017.54,1111122 
COMPS,ioos:station:USF.COMPS:TAR:1,2011-02-01T12:36:00Z,28.1560,-82.7580,1017.53,1111122 
COMPS,ioos:station:USF.COMPS:TAR:1,2011-02-01T12:42:00Z,28.1560,-82.7580,1017.62,1111122 
COMPS,ioos:station:USF.COMPS:TAR:1,2011-02-01T12:48:00Z,28.1560,-82.7580,1017.73,1111122 
COMPS,ioos:station:USF.COMPS:TAR:1,2011-02-01T12:54:00Z,28.1560,-82.7580,1017.7,1111122 
COMPS,ioos:station:USF.COMPS:TAR:1,2011-02-01T13:00:00Z,28.1560,-82.7580,1017.7,1111122 
COMPS,ioos:station:USF.COMPS:TAR:1,2011-02-01T14:00:00Z,28.1560,-82.7580,1018.1,1111122 
COMPS,ioos:station:USF.COMPS:TAR:1,2011-02-01T15:00:00Z,28.1560,-82.7580,1018.1,1111122 
COMPS,ioos:station:USF.COMPS:TAR:1,2011-02-01T16:00:00Z,28.1560,-82.7580,1017.9,1111122 
COMPS,ioos:station:USF.COMPS:TAR:1,2011-02-01T17:00:00Z,28.1560,-82.7580,1017.3,1111122 
COMPS,ioos:station:USF.COMPS:TAR:1,2011-02-01T18:00:00Z,28.1560,-82.7580,1016.0,1111122 
COMPS,ioos:station:USF.COMPS:TAR:1,2011-02-01T19:00:00Z,28.1560,-82.7580,1014.7,1111122 
COMPS,ioos:station:USF.COMPS:TAR:1,2011-02-01T19:06:00Z,28.1560,-82.7580,1014.36,1111122 
COMPS,ioos:station:USF.COMPS:TAR:1,2011-02-01T19:12:00Z,28.1560,-82.7580,1014.36,1111122 
COMPS,ioos:station:USF.COMPS:TAR:1,2011-02-01T19:18:00Z,28.1560,-82.7580,1014.33,1111122 
COMPS,ioos:station:USF.COMPS:TAR:1,2011-02-01T19:24:00Z,28.1560,-82.7580,1014.3,1111122 
COMPS,ioos:station:USF.COMPS:TAR:1,2011-02-01T19:30:00Z,28.1560,-82.7580,1014.3,1111122 
COMPS,ioos:station:USF.COMPS:TAR:1,2011-02-01T19:36:00Z,28.1560,-82.7580,1014.26,1111122 
COMPS,ioos:station:USF.COMPS:TAR:1,2011-02-01T19:42:00Z,28.1560,-82.7580,1014.3,1111122 
COMPS,ioos:station:USF.COMPS:TAR:1,2011-02-01T19:48:00Z,28.1560,-82.7580,1014.28,1111122 
COMPS,ioos:station:USF.COMPS:TAR:1,2011-02-01T19:54:00Z,28.1560,-82.7580,1014.28,1111122 
COMPS,ioos:station:USF.COMPS:TAR:1,2011-02-01T20:00:00Z,28.1560,-82.7580,1014.3,1111122 
COMPS,ioos:station:USF.COMPS:TAR:1,2011-02-01T21:00:00Z,28.1560,-82.7580,1014.7,1111122 
COMPS,ioos:station:USF.COMPS:TAR:1,2011-02-01T22:00:00Z,28.1560,-82.7580,1015.1,1111122 
COMPS,ioos:station:USF.COMPS:TAR:1,2011-02-01T23:00:00Z,28.1560,-82.7580,1015.3,1111122 
COMPS,ioos:station:USF.COMPS:TAR:1,2011-02-01T23:06:00Z,28.1560,-82.7580,1015.38,1111122 
COMPS,ioos:station:USF.COMPS:TAR:1,2011-02-01T23:12:00Z,28.1560,-82.7580,1015.42,1111122 
COMPS,ioos:station:USF.COMPS:TAR:1,2011-02-01T23:18:00Z,28.1560,-82.7580,1015.42,1111122 
COMPS,ioos:station:USF.COMPS:TAR:1,2011-02-01T23:24:00Z,28.1560,-82.7580,1015.46,1111122 
COMPS,ioos:station:USF.COMPS:TAR:1,2011-02-01T23:30:00Z,28.1560,-82.7580,1015.54,1111122 
COMPS,ioos:station:USF.COMPS:TAR:1,2011-02-01T23:36:00Z,28.1560,-82.7580,1015.49,1111122 
COMPS,ioos:station:USF.COMPS:TAR:1,2011-02-01T23:42:00Z,28.1560,-82.7580,1015.52,1111122 
COMPS,ioos:station:USF.COMPS:TAR:1,2011-02-01T23:48:00Z,28.1560,-82.7580,1015.48,1111122 
COMPS,ioos:station:USF.COMPS:TAR:1,2011-02-01T23:54:00Z,28.1560,-82.7580,1015.46,1111122 
COMPS,ioos:station:USF.COMPS:TAR:1,2011-02-02T01:00:00Z,28.1560,-82.7580,1016.1,1111122 
COMPS,ioos:station:USF.COMPS:TAR:1,2011-02-02T02:00:00Z,28.1560,-82.7580,1016.5,1111122 
COMPS,ioos:station:USF.COMPS:TAR:1,2011-02-02T02:06:00Z,28.1560,-82.7580,1016.53,1111122 
COMPS,ioos:station:USF.COMPS:TAR:1,2011-02-02T02:12:00Z,28.1560,-82.7580,1016.58,1111122 
COMPS,ioos:station:USF.COMPS:TAR:1,2011-02-02T02:18:00Z,28.1560,-82.7580,1016.69,1111122 
COMPS,ioos:station:USF.COMPS:TAR:1,2011-02-02T02:24:00Z,28.1560,-82.7580,1016.74,1111122 
COMPS,ioos:station:USF.COMPS:TAR:1,2011-02-02T02:30:00Z,28.1560,-82.7580,1016.84,1111122 
COMPS,ioos:station:USF.COMPS:TAR:1,2011-02-02T02:36:00Z,28.1560,-82.7580,1016.94,1111122 
COMPS,ioos:station:USF.COMPS:TAR:1,2011-02-02T02:42:00Z,28.1560,-82.7580,1016.96,1111122 
COMPS,ioos:station:USF.COMPS:TAR:1,2011-02-02T02:48:00Z,28.1560,-82.7580,1016.9,1111122 
COMPS,ioos:station:USF.COMPS:TAR:1,2011-02-02T02:54:00Z,28.1560,-82.7580,1016.8,1111122 
COMPS,ioos:station:USF.COMPS:TAR:1,2011-02-02T03:00:00Z,28.1560,-82.7580,1016.8,1111122 
COMPS,ioos:station:USF.COMPS:TAR:1,2011-02-02T04:00:00Z,28.1560,-82.7580,1017.2,1111122 
COMPS,ioos:station:USF.COMPS:TAR:1,2011-02-02T05:00:00Z,28.1560,-82.7580,1017.0,1111122 
COMPS,ioos:station:USF.COMPS:TAR:1,2011-02-02T06:00:00Z,28.1560,-82.7580,1016.52,1111122 
COMPS,ioos:station:USF.COMPS:TAR:1,2011-02-02T06:06:00Z,28.1560,-82.7580,1016.62,1111122 
COMPS,ioos:station:USF.COMPS:TAR:1,2011-02-02T06:12:00Z,28.1560,-82.7580,1016.61,1111122 
COMPS,ioos:station:USF.COMPS:TAR:1,2011-02-02T06:18:00Z,28.1560,-82.7580,1016.48,1111122 
COMPS,ioos:station:USF.COMPS:TAR:1,2011-02-02T06:24:00Z,28.1560,-82.7580,1016.37,1111122 
COMPS,ioos:station:USF.COMPS:TAR:1,2011-02-02T06:30:00Z,28.1560,-82.7580,1016.22,1111122 
COMPS,ioos:station:USF.COMPS:TAR:1,2011-02-02T06:36:00Z,28.1560,-82.7580,1016.17,1111122 
COMPS,ioos:station:USF.COMPS:TAR:1,2011-02-02T06:42:00Z,28.1560,-82.7580,1016.14,1111122 
COMPS,ioos:station:USF.COMPS:TAR:1,2011-02-02T06:48:00Z,28.1560,-82.7580,1015.93,1111122 
COMPS,ioos:station:USF.COMPS:TAR:1,2011-02-02T06:54:00Z,28.1560,-82.7580,1015.92,1111122 
COMPS,ioos:station:USF.COMPS:TAR:1,2011-02-02T07:00:00Z,28.1560,-82.7580,1015.9,1111122 
COMPS,ioos:station:USF.COMPS:TAR:1,2011-02-02T08:00:00Z,28.1560,-82.7580,1015.4,1111122 
COMPS,ioos:station:USF.COMPS:TAR:1,2011-02-02T09:00:00Z,28.1560,-82.7580,1014.8,1111122 
COMPS,ioos:station:USF.COMPS:TAR:1,2011-02-02T10:00:00Z,28.1560,-82.7580,1014.9,1111122 
COMPS,ioos:station:USF.COMPS:TAR:1,2011-02-02T10:06:00Z,28.1560,-82.7580,1014.9,1111122 
COMPS,ioos:station:USF.COMPS:TAR:1,2011-02-02T10:12:00Z,28.1560,-82.7580,1014.76,1111122 
COMPS,ioos:station:USF.COMPS:TAR:1,2011-02-02T10:18:00Z,28.1560,-82.7580,1015.06,1111122 
COMPS,ioos:station:USF.COMPS:TAR:1,2011-02-02T10:24:00Z,28.1560,-82.7580,1015.38,1111122 
COMPS,ioos:station:USF.COMPS:TAR:1,2011-02-02T10:30:00Z,28.1560,-82.7580,1015.64,1111122 
COMPS,ioos:station:USF.COMPS:TAR:1,2011-02-02T10:36:00Z,28.1560,-82.7580,1015.74,1111122 
COMPS,ioos:station:USF.COMPS:TAR:1,2011-02-02T10:42:00Z,28.1560,-82.7580,1015.88,1111122 
COMPS,ioos:station:USF.COMPS:TAR:1,2011-02-02T10:48:00Z,28.1560,-82.7580,1015.86,1111122 
COMPS,ioos:station:USF.COMPS:TAR:1,2011-02-02T10:54:00Z,28.1560,-82.7580,1015.77,1111122 
COMPS,ioos:station:USF.COMPS:TAR:1,2011-02-02T11:00:00Z,28.1560,-82.7580,1015.8,1111122 
COMPS,ioos:station:USF.COMPS:TAR:1,2011-02-02T12:00:00Z,28.1560,-82.7580,1016.4,1111122 
COMPS,ioos:station:USF.COMPS:TAR:1,2011-02-02T13:00:00Z,28.1560,-82.7580,1016.9,1111122 
COMPS,ioos:station:USF.COMPS:TAR:1,2011-02-02T13:06:00Z,28.1560,-82.7580,1017.12,1111122 
COMPS,ioos:station:USF.COMPS:TAR:1,2011-02-02T13:12:00Z,28.1560,-82.7580,1017.12,1111122 
COMPS,ioos:station:USF.COMPS:TAR:1,2011-02-02T13:18:00Z,28.1560,-82.7580,1017.06,1111122 
COMPS,ioos:station:USF.COMPS:TAR:1,2011-02-02T13:24:00Z,28.1560,-82.7580,1017.25,1111122 
COMPS,ioos:station:USF.COMPS:TAR:1,2011-02-02T13:30:00Z,28.1560,-82.7580,1017.33,1111122 
COMPS,ioos:station:USF.COMPS:TAR:1,2011-02-02T13:36:00Z,28.1560,-82.7580,1017.28,1111122 
COMPS,ioos:station:USF.COMPS:TAR:1,2011-02-02T13:42:00Z,28.1560,-82.7580,1017.22,1111122 
COMPS,ioos:station:USF.COMPS:TAR:1,2011-02-02T13:48:00Z,28.1560,-82.7580,1017.16,1111122 
COMPS,ioos:station:USF.COMPS:TAR:1,2011-02-02T13:54:00Z,28.1560,-82.7580,1017.13,1111122 
COMPS,ioos:station:USF.COMPS:TAR:1,2011-02-02T14:00:00Z,28.1560,-82.7580,1017.1,1111122 
COMPS,ioos:station:USF.COMPS:TAR:1,2011-02-02T15:00:00Z,28.1560,-82.7580,1017.9,1111122 
COMPS,ioos:station:USF.COMPS:TAR:1,2011-02-02T16:00:00Z,28.1560,-82.7580,1019.5,1111122 
COMPS,ioos:station:USF.COMPS:TAR:1,2011-02-02T16:06:00Z,28.1560,-82.7580,1019.42,1111122 
COMPS,ioos:station:USF.COMPS:TAR:1,2011-02-02T16:12:00Z,28.1560,-82.7580,1019.69,1111122 
COMPS,ioos:station:USF.COMPS:TAR:1,2011-02-02T16:18:00Z,28.1560,-82.7580,1019.86,1111122 
COMPS,ioos:station:USF.COMPS:TAR:1,2011-02-02T16:24:00Z,28.1560,-82.7580,1019.94,1111122 
COMPS,ioos:station:USF.COMPS:TAR:1,2011-02-02T16:30:00Z,28.1560,-82.7580,1019.8,1111122 
COMPS,ioos:station:USF.COMPS:TAR:1,2011-02-02T16:36:00Z,28.1560,-82.7580,1019.77,1111122 
COMPS,ioos:station:USF.COMPS:TAR:1,2011-02-02T16:42:00Z,28.1560,-82.7580,1019.56,1111122 
COMPS,ioos:station:USF.COMPS:TAR:1,2011-02-02T16:48:00Z,28.1560,-82.7580,1019.49,1111122 
COMPS,ioos:station:USF.COMPS:TAR:1,2011-02-02T16:54:00Z,28.1560,-82.7580,1019.46,1111122 
COMPS,ioos:station:USF.COMPS:TAR:1,2011-02-02T17:00:00Z,28.1560,-82.7580,1019.5,1111122 
COMPS,ioos:station:USF.COMPS:TAR:1,2011-02-02T18:00:00Z,28.1560,-82.7580,1018.7,1111122 
COMPS,ioos:station:USF.COMPS:TAR:1,2011-02-02T19:00:00Z,28.1560,-82.7580,1018.1,1111122 
COMPS,ioos:station:USF.COMPS:TAR:1,2011-02-02T20:00:00Z,28.1560,-82.7580,1017.7,1111122 
COMPS,ioos:station:USF.COMPS:TAR:1,2011-02-02T21:00:00Z,28.1560,-82.7580,1017.4,1111122 
COMPS,ioos:station:USF.COMPS:TAR:1,2011-02-02T21:06:00Z,28.1560,-82.7580,1017.62,1111122 
COMPS,ioos:station:USF.COMPS:TAR:1,2011-02-02T21:12:00Z,28.1560,-82.7580,1017.61,1111122 
COMPS,ioos:station:USF.COMPS:TAR:1,2011-02-02T21:18:00Z,28.1560,-82.7580,1017.61,1111122 
COMPS,ioos:station:USF.COMPS:TAR:1,2011-02-02T21:24:00Z,28.1560,-82.7580,1017.62,1111122 
COMPS,ioos:station:USF.COMPS:TAR:1,2011-02-02T21:30:00Z,28.1560,-82.7580,1017.61,1111122 
COMPS,ioos:station:USF.COMPS:TAR:1,2011-02-02T21:36:00Z,28.1560,-82.7580,1017.74,1111122 
COMPS,ioos:station:USF.COMPS:TAR:1,2011-02-02T21:42:00Z,28.1560,-82.7580,1017.82,1111122 
COMPS,ioos:station:USF.COMPS:TAR:1,2011-02-02T21:48:00Z,28.1560,-82.7580,1017.92,1111122 
COMPS,ioos:station:USF.COMPS:TAR:1,2011-02-02T21:54:00Z,28.1560,-82.7580,1017.9,1111122 
COMPS,ioos:station:USF.COMPS:TAR:1,2011-02-02T22:00:00Z,28.1560,-82.7580,1017.9,1111122 
COMPS,ioos:station:USF.COMPS:TAR:1,2011-02-02T23:00:00Z,28.1560,-82.7580,1018.5,1111122 
COMPS,ioos:station:USF.COMPS:TAR:1,2011-02-03T00:00:00Z,28.1560,-82.7580,1019.2,1111122 
COMPS,ioos:station:USF.COMPS:TAR:1,2011-02-03T00:06:00Z,28.1560,-82.7580,1019.24,1111122 
COMPS,ioos:station:USF.COMPS:TAR:1,2011-02-03T00:12:00Z,28.1560,-82.7580,1019.29,1111122 
COMPS,ioos:station:USF.COMPS:TAR:1,2011-02-03T00:18:00Z,28.1560,-82.7580,1019.41,1111122 
COMPS,ioos:station:USF.COMPS:TAR:1,2011-02-03T00:24:00Z,28.1560,-82.7580,1019.53,1111122 
COMPS,ioos:station:USF.COMPS:TAR:1,2011-02-03T00:30:00Z,28.1560,-82.7580,1019.45,1111122 
COMPS,ioos:station:USF.COMPS:TAR:1,2011-02-03T00:36:00Z,28.1560,-82.7580,1019.44,1111122 
COMPS,ioos:station:USF.COMPS:TAR:1,2011-02-03T00:42:00Z,28.1560,-82.7580,1019.4,1111122 
COMPS,ioos:station:USF.COMPS:TAR:1,2011-02-03T00:48:00Z,28.1560,-82.7580,1019.45,1111122 
COMPS,ioos:station:USF.COMPS:TAR:1,2011-02-03T00:54:00Z,28.1560,-82.7580,1019.52,1111122 
COMPS,ioos:station:USF.COMPS:TAR:1,2011-02-03T01:00:00Z,28.1560,-82.7580,1019.5,1111122 
COMPS,ioos:station:USF.COMPS:TAR:1,2011-02-03T02:00:00Z,28.1560,-82.7580,1019.9,1111122 
COMPS,ioos:station:USF.COMPS:TAR:1,2011-02-03T03:00:00Z,28.1560,-82.7580,1019.8,1111122 
COMPS,ioos:station:USF.COMPS:TAR:1,2011-02-03T03:06:00Z,28.1560,-82.7580,1019.92,1111122 
COMPS,ioos:station:USF.COMPS:TAR:1,2011-02-03T03:12:00Z,28.1560,-82.7580,1019.9,1111122 
COMPS,ioos:station:USF.COMPS:TAR:1,2011-02-03T03:18:00Z,28.1560,-82.7580,1020.01,1111122 
COMPS,ioos:station:USF.COMPS:TAR:1,2011-02-03T03:24:00Z,28.1560,-82.7580,1020.08,1111122 
COMPS,ioos:station:USF.COMPS:TAR:1,2011-02-03T03:30:00Z,28.1560,-82.7580,1020.12,1111122 
COMPS,ioos:station:USF.COMPS:TAR:1,2011-02-03T03:36:00Z,28.1560,-82.7580,1020.2,1111122 
COMPS,ioos:station:USF.COMPS:TAR:1,2011-02-03T03:42:00Z,28.1560,-82.7580,1020.04,1111122 
COMPS,ioos:station:USF.COMPS:TAR:1,2011-02-03T03:48:00Z,28.1560,-82.7580,1020.12,1111122 
COMPS,ioos:station:USF.COMPS:TAR:1,2011-02-03T03:54:00Z,28.1560,-82.7580,1020.24,1111122 
COMPS,ioos:station:USF.COMPS:TAR:1,2011-02-03T04:00:00Z,28.1560,-82.7580,1020.2,1111122 
COMPS,ioos:station:USF.COMPS:TAR:1,2011-02-03T05:00:00Z,28.1560,-82.7580,1019.8,1111122 
COMPS,ioos:station:USF.COMPS:TAR:1,2011-02-03T06:00:00Z,28.1560,-82.7580,1019.6,1111122 
COMPS,ioos:station:USF.COMPS:TAR:1,2011-02-03T07:00:00Z,28.1560,-82.7580,1019.3,1111122 
COMPS,ioos:station:USF.COMPS:TAR:1,2011-02-03T08:00:00Z,28.1560,-82.7580,1019.7,1111122 
COMPS,ioos:station:USF.COMPS:TAR:1,2011-02-03T08:06:00Z,28.1560,-82.7580,1019.78,1111122 
COMPS,ioos:station:USF.COMPS:TAR:1,2011-02-03T08:12:00Z,28.1560,-82.7580,1019.85,1111122 
COMPS,ioos:station:USF.COMPS:TAR:1,2011-02-03T08:18:00Z,28.1560,-82.7580,1019.82,1111122 
COMPS,ioos:station:USF.COMPS:TAR:1,2011-02-03T08:24:00Z,28.1560,-82.7580,1019.82,1111122 
COMPS,ioos:station:USF.COMPS:TAR:1,2011-02-03T08:30:00Z,28.1560,-82.7580,1019.77,1111122 
COMPS,ioos:station:USF.COMPS:TAR:1,2011-02-03T08:36:00Z,28.1560,-82.7580,1019.78,1111122 
COMPS,ioos:station:USF.COMPS:TAR:1,2011-02-03T08:42:00Z,28.1560,-82.7580,1019.8,1111122 
COMPS,ioos:station:USF.COMPS:TAR:1,2011-02-03T08:48:00Z,28.1560,-82.7580,1019.72,1111122 
COMPS,ioos:station:USF.COMPS:TAR:1,2011-02-03T08:54:00Z,28.1560,-82.7580,1019.7,1111122 
COMPS,ioos:station:USF.COMPS:TAR:1,2011-02-03T09:00:00Z,28.1560,-82.7580,1019.7,1111122 
COMPS,ioos:station:USF.COMPS:TAR:1,2011-02-03T10:00:00Z,28.1560,-82.7580,1019.7,1111122 
COMPS,ioos:station:USF.COMPS:TAR:1,2011-02-03T11:00:00Z,28.1560,-82.7580,1019.8,1111122 
COMPS,ioos:station:USF.COMPS:TAR:1,2011-02-03T12:00:00Z,28.1560,-82.7580,1020.4,1111122 
COMPS,ioos:station:USF.COMPS:TAR:1,2011-02-03T13:00:00Z,28.1560,-82.7580,1021.1,1111122 
COMPS,ioos:station:USF.COMPS:TAR:1,2011-02-03T13:06:00Z,28.1560,-82.7580,1021.25,1111122 
COMPS,ioos:station:USF.COMPS:TAR:1,2011-02-03T13:12:00Z,28.1560,-82.7580,1021.3,1111122 
COMPS,ioos:station:USF.COMPS:TAR:1,2011-02-03T13:18:00Z,28.1560,-82.7580,1021.42,1111122 
COMPS,ioos:station:USF.COMPS:TAR:1,2011-02-03T13:24:00Z,28.1560,-82.7580,1021.58,1111122 
COMPS,ioos:station:USF.COMPS:TAR:1,2011-02-03T13:30:00Z,28.1560,-82.7580,1021.6,1111122 
COMPS,ioos:station:USF.COMPS:TAR:1,2011-02-03T13:36:00Z,28.1560,-82.7580,1021.64,1111122 
COMPS,ioos:station:USF.COMPS:TAR:1,2011-02-03T13:42:00Z,28.1560,-82.7580,1021.66,1111122 
COMPS,ioos:station:USF.COMPS:TAR:1,2011-02-03T13:48:00Z,28.1560,-82.7580,1021.76,1111122 
COMPS,ioos:station:USF.COMPS:TAR:1,2011-02-03T13:54:00Z,28.1560,-82.7580,1021.85,1111122 
COMPS,ioos:station:USF.COMPS:TAR:1,2011-02-03T14:00:00Z,28.1560,-82.7580,1021.9,1111122 
COMPS,ioos:station:USF.COMPS:TAR:1,2011-02-03T15:00:00Z,28.1560,-82.7580,1022.6,1111122 
COMPS,ioos:station:USF.COMPS:TAR:1,2011-02-03T15:06:00Z,28.1560,-82.7580,1022.62,1111122 
COMPS,ioos:station:USF.COMPS:TAR:1,2011-02-03T15:12:00Z,28.1560,-82.7580,1022.53,1111122 
COMPS,ioos:station:USF.COMPS:TAR:1,2011-02-03T15:18:00Z,28.1560,-82.7580,1022.64,1111122 
COMPS,ioos:station:USF.COMPS:TAR:1,2011-02-03T15:24:00Z,28.1560,-82.7580,1022.64,1111122 
COMPS,ioos:station:USF.COMPS:TAR:1,2011-02-03T15:30:00Z,28.1560,-82.7580,1022.54,1111122 
COMPS,ioos:station:USF.COMPS:TAR:1,2011-02-03T15:36:00Z,28.1560,-82.7580,1022.54,1111122 
COMPS,ioos:station:USF.COMPS:TAR:1,2011-02-03T15:42:00Z,28.1560,-82.7580,1022.58,1111122 
COMPS,ioos:station:USF.COMPS:TAR:1,2011-02-03T15:48:00Z,28.1560,-82.7580,1022.61,1111122 
COMPS,ioos:station:USF.COMPS:TAR:1,2011-02-03T15:54:00Z,28.1560,-82.7580,1022.64,1111122 
COMPS,ioos:station:USF.COMPS:TAR:1,2011-02-03T16:00:00Z,28.1560,-82.7580,1022.6,1111122 
COMPS,ioos:station:USF.COMPS:TAR:1,2011-02-03T17:00:00Z,28.1560,-82.7580,1022.2,1111122 
COMPS,ioos:station:USF.COMPS:TAR:1,2011-02-03T18:00:00Z,28.1560,-82.7580,1021.5,1111122 
COMPS,ioos:station:USF.COMPS:TAR:1,2011-02-03T19:00:00Z,28.1560,-82.7580,1020.9,1111122 
COMPS,ioos:station:USF.COMPS:TAR:1,2011-02-03T20:00:00Z,28.1560,-82.7580,1020.1,1111122 
COMPS,ioos:station:USF.COMPS:TAR:1,2011-02-03T21:00:00Z,28.1560,-82.7580,1019.5,1111122 
COMPS,ioos:station:USF.COMPS:TAR:1,2011-02-03T21:06:00Z,28.1560,-82.7580,1019.2,1111122 
COMPS,ioos:station:USF.COMPS:TAR:1,2011-02-03T21:12:00Z,28.1560,-82.7580,1019.16,1111122 
COMPS,ioos:station:USF.COMPS:TAR:1,2011-02-03T21:18:00Z,28.1560,-82.7580,1019.12,1111122 
COMPS,ioos:station:USF.COMPS:TAR:1,2011-02-03T21:24:00Z,28.1560,-82.7580,1019.02,1111122 
COMPS,ioos:station:USF.COMPS:TAR:1,2011-02-03T21:30:00Z,28.1560,-82.7580,1019.02,1111122 
COMPS,ioos:station:USF.COMPS:TAR:1,2011-02-03T21:36:00Z,28.1560,-82.7580,1019.13,1111122 
COMPS,ioos:station:USF.COMPS:TAR:1,2011-02-03T21:42:00Z,28.1560,-82.7580,1019.04,1111122 
COMPS,ioos:station:USF.COMPS:TAR:1,2011-02-03T21:48:00Z,28.1560,-82.7580,1019.13,1111122 
COMPS,ioos:station:USF.COMPS:TAR:1,2011-02-03T21:54:00Z,28.1560,-82.7580,1019.13,1111122 
COMPS,ioos:station:USF.COMPS:TAR:1,2011-02-03T22:00:00Z,28.1560,-82.7580,1019.1,1111122 
COMPS,ioos:station:USF.COMPS:TAR:1,2011-02-03T23:00:00Z,28.1560,-82.7580,1019.0,1111122 
COMPS,ioos:station:USF.COMPS:TAR:1,2011-02-04T00:00:00Z,28.1560,-82.7580,1019.3,1111122 
COMPS,ioos:station:USF.COMPS:TAR:1,2011-02-04T01:00:00Z,28.1560,-82.7580,1019.8,1111122 
COMPS,ioos:station:USF.COMPS:TAR:1,2011-02-04T02:00:00Z,28.1560,-82.7580,1020.0,1111122 
COMPS,ioos:station:USF.COMPS:TAR:1,2011-02-04T03:00:00Z,28.1560,-82.7580,1020.2,1111122 
COMPS,ioos:station:USF.COMPS:TAR:1,2011-02-04T04:00:00Z,28.1560,-82.7580,1020.7,1111122 
COMPS,ioos:station:USF.COMPS:TAR:1,2011-02-04T05:00:00Z,28.1560,-82.7580,1020.2,1111122 
COMPS,ioos:station:USF.COMPS:TAR:1,2011-02-04T05:06:00Z,28.1560,-82.7580,1020.16,1111122 
COMPS,ioos:station:USF.COMPS:TAR:1,2011-02-04T05:12:00Z,28.1560,-82.7580,1020.13,1111122 
COMPS,ioos:station:USF.COMPS:TAR:1,2011-02-04T05:18:00Z,28.1560,-82.7580,1020.08,1111122 
COMPS,ioos:station:USF.COMPS:TAR:1,2011-02-04T05:24:00Z,28.1560,-82.7580,1020.05,1111122 
COMPS,ioos:station:USF.COMPS:TAR:1,2011-02-04T05:30:00Z,28.1560,-82.7580,1019.9,1111122 
COMPS,ioos:station:USF.COMPS:TAR:1,2011-02-04T05:36:00Z,28.1560,-82.7580,1019.77,1111122 
COMPS,ioos:station:USF.COMPS:TAR:1,2011-02-04T05:42:00Z,28.1560,-82.7580,1019.73,1111122 
COMPS,ioos:station:USF.COMPS:TAR:1,2011-02-04T05:48:00Z,28.1560,-82.7580,1019.73,1111122 
COMPS,ioos:station:USF.COMPS:TAR:1,2011-02-04T05:54:00Z,28.1560,-82.7580,1019.72,1111122 
COMPS,ioos:station:USF.COMPS:TAR:1,2011-02-04T06:00:00Z,28.1560,-82.7580,1019.7,1111122 
COMPS,ioos:station:USF.COMPS:TAR:1,2011-02-04T07:00:00Z,28.1560,-82.7580,1019.3,1111122 
COMPS,ioos:station:USF.COMPS:TAR:1,2011-02-04T08:00:00Z,28.1560,-82.7580,1018.7,1111122 
COMPS,ioos:station:USF.COMPS:TAR:1,2011-02-04T09:00:00Z,28.1560,-82.7580,1018.6,1111122 
COMPS,ioos:station:USF.COMPS:TAR:1,2011-02-04T10:00:00Z,28.1560,-82.7580,1018.5,1111122 
COMPS,ioos:station:USF.COMPS:TAR:1,2011-02-04T10:06:00Z,28.1560,-82.7580,1018.52,1111122 
COMPS,ioos:station:USF.COMPS:TAR:1,2011-02-04T10:12:00Z,28.1560,-82.7580,1018.56,1111122 
COMPS,ioos:station:USF.COMPS:TAR:1,2011-02-04T10:18:00Z,28.1560,-82.7580,1018.54,1111122 
COMPS,ioos:station:USF.COMPS:TAR:1,2011-02-04T10:24:00Z,28.1560,-82.7580,1018.54,1111122 
COMPS,ioos:station:USF.COMPS:TAR:1,2011-02-04T10:30:00Z,28.1560,-82.7580,1018.57,1111122 
COMPS,ioos:station:USF.COMPS:TAR:1,2011-02-04T10:36:00Z,28.1560,-82.7580,1018.64,1111122 
COMPS,ioos:station:USF.COMPS:TAR:1,2011-02-04T10:42:00Z,28.1560,-82.7580,1018.54,1111122 
COMPS,ioos:station:USF.COMPS:TAR:1,2011-02-04T10:48:00Z,28.1560,-82.7580,1018.6,1111122 
COMPS,ioos:station:USF.COMPS:TAR:1,2011-02-04T10:54:00Z,28.1560,-82.7580,1018.66,1111122 
COMPS,ioos:station:USF.COMPS:TAR:1,2011-02-04T11:00:00Z,28.1560,-82.7580,1018.7,1111122 
COMPS,ioos:station:USF.COMPS:TAR:1,2011-02-04T11:06:00Z,28.1560,-82.7580,1018.65,1111122 
COMPS,ioos:station:USF.COMPS:TAR:1,2011-02-04T11:12:00Z,28.1560,-82.7580,1018.65,1111122 
COMPS,ioos:station:USF.COMPS:TAR:1,2011-02-04T11:18:00Z,28.1560,-82.7580,1018.68,1111122 
COMPS,ioos:station:USF.COMPS:TAR:1,2011-02-04T11:24:00Z,28.1560,-82.7580,1018.68,1111122 